GFSFLT2_925_temp_063.txt.gz
Temp
16 15 15 14 14 14 15 16 16 16 16 17 17 17 17 17 17 17 17 17 17 17 16 16 16 16 16 16 17 18 19 18
14 14 15 14 14 15 15 16 16 16 16 17 17 17 17 17 17 17 17 17 16 16 16 16 16 15 15 16 17 18 18 18
12 13 14 14 14 13 14 15 15 16 17 18 17 17 17 17 16 17 17 16 16 16 16 16 15 15 15 16 17 17 18 18
11 12 11 12 11 12 13 14 16 16 16 16 17 17 16 16 16 16 16 16 16 16 16 16 16 17 16 16 16 16 17 17
11 11 11 12 12 12 14 15 15 15 16 17 17 16 17 15 15 14 15 15 15 15 16 16 16 16 16 16 16 17 17 17
11 11 11 12 12 13 15 15 15 15 16 16 16 16 16 16 16 16 15 16 15 16 16 14 15 15 14 14 14 16 15 16
11 12 12 13 14 14 15 15 16 16 16 16 16 17 17 17 17 16 16 16 16 16 15 15 15 15 15 14 14 14 15 16
12 12 13 14 15 16 17 17 17 17 16 16 17 17 17 17 16 17 17 16 16 16 16 15 16 15 14 14 14 15 14 14
12 13 14 16 16 17 17 17 17 17 17 17 16 17 16 17 16 16 16 16 16 16 15 15 16 16 15 14 15 14 14 14
14 16 16 17 17 18 18 18 17 17 18 17 16 16 16 16 17 16 16 15 15 15 15 16 16 16 16 15 15 14 13 13
17 18 18 18 18 18 18 18 17 18 18 18 16 16 16 16 16 15 15 15 15 15 16 16 16 16 16 15 14 14 13 14
19 18 18 18 18 18 18 18 18 19 18 19 17 16 15 15 15 15 14 15 15 15 15 15 16 16 16 15 14 14 14 13
19 19 18 18 19 18 19 19 18 18 19 19 17 16 15 14 16 15 13 15 15 15 14 15 15 14 15 15 15 13 12 13
20 19 19 19 19 19 20 20 19 19 19 19 16 15 14 14 15 15 14 15 15 14 14 14 15 14 15 15 16 15 13 12
21 21 20 20 20 20 20 20 20 19 19 19 16 15 15 14 14 15 14 14 14 13 13 14 15 13 13 14 15 13 13 14
21 21 21 21 20 21 20 20 20 20 19 19 16 15 14 14 14 14 13 13 14 13 13 14 14 14 12 10 10 10 12 13
21 21 21 21 20 20 20 20 20 20 19 19 15 15 14 14 14 13 12 12 13 13 13 13 13 14 10 9 9 9 11 11
21 21 21 21 21 20 20 20 19 20 20 18 16 15 14 13 13 11 12 12 12 13 13 12 11 9 9 8 8 9 11 10
22 21 21 21 21 20 19 19 19 19 19 17 16 15 14 13 12 11 11 11 11 11 12 10 8 9 7 7 7 9 8 9
23 22 21 21 20 20 20 19 19 18 18 15 15 15 14 14 13 11 10 10 10 11 9 8 7 7 6 6 7 7 7 9

GFSFLT2_925_temp_069.txt.gz
Temp
16 17 18 18 13 15 15 16 16 17 17 17 16 16 17 17 18 18 17 17 17 17 17 18 18 18 18 18 16 15 15 14
14 14 16 15 14 14 13 14 16 16 16 16 16 16 17 17 17 17 17 17 17 17 17 18 17 18 18 17 16 14 14 14
12 13 13 14 14 13 13 13 17 17 16 16 16 16 16 17 17 17 17 17 17 17 17 17 17 17 17 17 16 16 15 15
12 13 14 14 12 13 12 13 16 17 17 17 16 16 17 17 17 17 17 16 16 16 16 16 16 16 16 17 16 16 15 14
12 12 11 12 12 12 13 13 16 16 16 16 16 16 17 17 16 17 16 16 16 16 16 15 16 16 16 16 16 15 15 14
12 12 12 13 12 13 14 15 16 16 16 16 16 16 17 16 17 16 16 16 16 16 15 15 16 16 16 16 15 15 15 14
12 12 12 12 13 13 14 15 16 16 16 16 16 17 17 17 16 16 16 16 16 15 15 16 15 15 15 15 15 14 14 14
12 12 12 12 12 13 14 15 16 16 16 16 16 16 17 17 16 16 16 16 16 15 16 15 15 15 14 14 15 14 14 14
12 12 12 12 13 14 15 15 16 16 16 16 16 17 18 16 16 16 16 16 16 16 16 15 15 15 15 14 14 14 14 13
12 12 12 12 13 14 15 16 16 16 16 16 17 17 17 16 16 16 16 16 16 16 15 15 15 15 15 15 14 14 14 13
12 13 13 13 14 15 15 16 16 16 16 16 16 17 17 17 17 16 16 16 16 16 16 15 15 15 15 15 14 14 14 14
13 13 13 14 15 16 16 17 17 17 17 17 17 17 16 16 16 16 16 16 16 16 15 15 15 16 16 15 15 14 14 14
13 13 14 15 15 16 17 17 17 17 17 17 17 17 17 16 16 16 16 16 16 15 15 15 15 16 15 15 14 14 14 14
14 15 15 16 16 16 16 17 17 17 17 17 17 17 17 16 16 16 16 15 15 15 15 15 15 15 15 14 10 12 13 13
14 14 15 15 16 17 17 17 17 17 17 18 17 17 17 16 16 16 15 15 15 15 15 14 14 14 15 14 10 9 10 13
15 16 16 17 18 18 17 17 17 17 17 18 18 18 17 16 16 16 15 15 15 15 15 14 14 13 13 13 12 11 8 9
16 17 18 18 18 17 17 18 18 18 18 18 18 18 17 16 16 16 15 15 14 14 14 14 12 10 11 10 10 9 9 9
18 18 18 18 18 18 18 18 19 19 18 18 18 18 17 17 16 15 15 14 14 14 14 13 11 10 10 9 9 7 7 8
18 18 18 18 18 18 19 19 19 20 20 19 18 16 16 17 16 15 15 14 14 14 13 11 11 10 10 9 7 7 7 7
19 19 19 19 18 18 19 19 20 20 20 19 19 18 17 16 15 15 15 14 13 12 11 10 9 9 9 8 7 7 7 6

GFSFLT2_925_temp_075.txt.gz
Temp
15 14 17 18 17 17 17 16 15 16 16 16 16 17 16 17 17 17 17 17 16 16 16 16 16 16 16 15 15 15 13 12
14 14 15 16 15 15 16 15 16 16 17 16 17 17 17 17 17 18 17 17 16 16 16 16 16 16 15 15 15 14 13 12
14 14 14 14 14 17 16 14 14 15 17 16 16 16 16 17 17 17 17 17 16 16 17 17 16 15 15 15 15 14 13 12
13 13 13 13 13 15 15 15 14 14 17 16 16 17 16 17 17 17 17 17 16 16 16 17 16 15 15 15 15 14 13 12
12 12 12 12 12 12 13 13 13 14 17 17 16 16 16 16 16 17 17 17 17 17 16 16 16 15 15 15 14 14 13 12
12 12 12 11 11 12 12 12 13 14 16 17 17 16 16 16 17 17 17 17 17 17 17 16 16 15 15 15 14 14 13 12
12 12 11 11 11 12 12 13 14 15 16 16 17 17 17 17 16 17 17 17 17 16 16 16 15 15 15 15 14 14 13 12
12 11 11 11 12 12 12 13 13 15 16 17 18 17 17 16 16 16 16 17 16 16 16 16 15 15 15 14 14 14 13 13
12 11 12 11 12 13 12 13 14 15 16 17 17 17 16 16 16 16 16 16 16 15 15 15 15 15 15 14 14 14 14 13
12 11 12 12 12 12 13 13 14 15 15 16 16 16 16 16 17 16 16 16 16 16 15 15 15 15 15 15 14 14 14 14
12 12 11 12 12 13 13 14 14 15 16 16 16 17 16 17 16 16 16 16 16 15 15 15 15 15 15 14 14 14 14 14
12 12 12 12 12 13 13 14 15 15 16 16 16 16 16 16 16 16 16 16 16 15 15 15 15 15 15 14 14 14 14 14
12 12 11 11 12 13 14 14 15 15 16 16 16 16 16 16 16 16 16 16 16 15 15 15 15 14 14 13 13 13 13 13
12 11 12 12 13 13 14 15 15 15 16 16 16 16 16 16 16 16 16 16 16 15 15 15 15 14 14 12 11 12 13 13
12 11 12 12 13 13 14 14 15 15 15 16 16 16 16 16 16 16 16 16 16 16 15 15 15 14 13 14 10 10 10 12
12 12 12 12 13 13 14 14 15 15 16 16 16 16 16 16 16 16 16 16 16 16 16 15 15 14 12 12 12 11 9 9
12 12 12 12 12 13 14 14 15 15 16 16 16 16 16 16 16 16 16 15 16 15 15 15 14 14 13 10 9 9 10 8
12 12 12 13 13 14 14 15 15 15 16 16 16 16 17 17 16 16 16 16 15 15 15 14 14 13 13 13 12 9 7 8
12 13 13 13 14 14 14 15 15 16 16 16 16 16 16 17 16 16 16 16 15 15 14 14 13 13 13 12 12 11 10 8
13 13 13 13 14 14 15 15 16 16 16 16 16 16 17 17 16 16 16 16 15 14 13 13 13 13 12 12 11 10 10 9

GFSFLT2_925_temp_078.txt.gz
Temp
15 15 15 17 18 17 16 17 17 17 17 17 16 16 15 15 15 15 16 16 16 16 16 15 16 15 15 14 13 12 12 12
15 15 14 15 15 17 17 17 16 17 17 16 16 15 15 15 15 16 16 16 16 16 16 15 15 15 14 14 13 12 12 12
14 14 14 16 17 17 17 16 16 15 15 16 15 15 15 15 16 16 16 16 16 16 16 15 15 15 14 14 14 13 12 12
14 14 14 15 15 16 15 14 14 14 14 16 15 16 16 16 16 16 16 16 17 16 15 15 15 14 14 14 14 13 12 12
13 13 13 14 15 14 14 14 14 13 14 15 16 16 16 17 15 15 16 16 16 16 15 15 15 15 14 14 13 13 12 12
12 12 12 12 13 13 13 13 13 13 14 15 15 16 16 16 16 16 16 16 16 16 16 15 15 15 14 14 14 13 12 11
12 12 12 11 12 13 13 13 12 12 13 14 16 17 16 16 16 16 16 16 16 16 16 15 15 14 15 15 14 13 12 12
12 12 11 11 12 12 13 13 14 13 13 15 17 17 17 16 16 16 16 16 16 16 17 16 15 15 15 14 14 13 13 12
12 11 11 11 12 12 12 13 13 14 14 16 16 17 17 17 17 17 16 16 16 16 15 15 15 14 14 14 14 13 13 12
12 11 11 11 12 12 12 12 13 13 15 16 17 17 18 16 17 16 16 16 16 15 15 15 15 15 14 14 14 14 13 13
12 11 11 11 12 12 12 13 13 13 14 15 16 17 16 17 17 16 16 15 15 15 15 15 15 14 14 14 14 13 13 13
12 12 11 12 12 12 12 13 13 14 14 16 15 16 16 16 16 16 16 15 14 15 15 15 15 14 14 14 14 14 14 13
12 12 11 11 12 12 12 13 13 14 15 16 16 16 16 16 16 15 16 15 15 15 15 14 15 14 14 13 13 14 14 14
12 12 11 12 12 12 12 13 13 14 15 15 15 16 16 16 15 16 15 15 15 15 15 14 14 14 14 12 10 12 13 13
12 12 12 11 12 12 13 13 13 14 15 15 15 16 16 16 16 15 15 15 15 15 15 15 14 14 14 14 9 10 10 12
12 12 12 11 12 12 13 13 13 14 15 16 16 16 16 16 16 16 15 15 15 15 15 15 15 14 12 13 13 12 9 10
11 12 12 11 12 13 13 14 15 15 15 16 16 16 16 16 16 15 15 15 15 15 15 15 15 14 14 11 11 10 10 10
11 11 12 11 12 12 13 14 14 15 15 15 15 15 16 15 15 15 15 15 15 15 15 15 15 14 13 13 13 11 9 8
11 11 11 12 12 12 13 14 14 15 15 15 16 16 16 15 15 15 15 15 15 15 15 14 14 13 13 12 13 13 12 11
11 11 11 12 12 12 13 13 14 14 15 15 15 16 16 16 16 16 16 16 16 16 15 14 14 13 12 12 11 12 12 11

GFSFLT2_925_temp_081.txt.gz
Temp
15 16 18 19 18 17 18 17 17 16 16 17 16 16 16 16 16 16 15 15 15 15 16 16 15 14 13 13 13 12 13 14
15 15 15 16 18 17 17 17 17 15 15 16 16 16 16 16 16 16 16 16 16 16 15 15 14 13 13 13 13 12 13 13
15 15 15 15 15 16 16 17 17 16 16 15 15 15 15 15 16 16 16 16 16 15 15 14 14 13 13 13 13 13 13 13
14 15 14 14 15 16 16 16 16 16 15 14 14 14 14 15 16 16 16 16 16 15 15 14 13 12 12 13 12 12 13 13
13 14 14 14 15 16 17 15 15 15 14 14 14 15 15 15 15 16 15 14 14 14 13 13 13 13 12 12 12 12 12 13
13 13 13 14 14 14 14 14 14 13 13 14 14 14 14 14 15 16 16 14 13 13 13 13 14 14 15 14 12 12 12 13
12 12 12 13 13 14 13 14 13 13 13 13 14 14 14 15 16 16 16 16 15 14 15 14 13 14 14 14 12 12 12 12
12 12 12 12 13 13 13 12 13 13 13 14 15 16 16 16 15 16 16 16 16 16 15 14 13 14 14 13 12 12 11 11
12 12 12 12 12 13 13 13 12 13 14 15 16 16 16 16 16 16 16 15 16 15 15 14 14 13 12 12 13 12 12 11
12 12 12 12 12 13 12 12 13 13 15 15 16 16 18 17 17 17 15 15 16 15 15 15 14 13 12 12 12 12 12 12
11 11 11 12 12 12 12 12 12 13 15 15 15 17 18 17 16 16 16 16 16 15 15 15 13 12 13 13 13 13 13 12
12 11 11 12 12 12 12 12 13 14 14 15 14 15 16 16 16 15 16 15 15 15 15 14 13 13 13 13 13 13 13 13
12 11 11 11 12 12 12 12 13 13 14 14 15 15 15 16 15 18 16 15 15 15 14 13 13 14 12 12 12 13 13 12
12 12 11 12 12 12 12 12 12 13 13 14 14 15 16 16 17 16 16 14 14 15 14 12 13 14 14 14 16 14 12 12
12 12 11 11 12 12 12 12 12 12 13 14 15 15 16 16 16 16 15 15 15 15 14 14 14 13 13 15 14 16 14 12
12 12 12 11 12 12 11 12 12 12 13 15 15 16 15 16 16 16 15 15 15 15 14 14 14 13 12 13 13 12 15 15
12 12 12 11 11 12 12 12 13 13 13 13 13 15 15 16 15 16 15 16 15 15 14 14 14 13 13 12 10 10 10 13
12 12 12 12 12 12 12 13 13 13 13 14 13 14 15 15 15 16 16 16 15 15 15 14 14 14 13 13 12 12 11 11
11 11 12 12 12 12 12 13 13 14 14 14 14 13 13 14 15 15 15 15 15 15 15 14 14 13 13 12 12 13 12 12
11 11 12 12 12 12 12 12 13 13 13 14 14 14 15 16 16 15 15 15 15 15 14 13 12 13 12 11 11 13 11 9

GFSFLT2_925_temp_087.txt.gz
Temp
18 17 17 17 17 17 18 18 17 17 16 17 17 17 17 17 17 17 16 16 15 14 14 15 15 15 16 17 18 18 20 18
18 17 17 16 16 17 17 17 16 17 17 17 15 16 16 17 17 17 16 15 14 14 15 15 15 15 16 17 17 19 19 18
16 17 16 16 16 16 16 17 16 17 16 16 15 15 16 16 16 16 16 16 15 15 15 15 15 15 15 17 17 19 19 18
16 15 16 16 16 16 15 15 16 16 15 15 16 15 16 16 15 15 16 16 15 15 15 15 14 14 15 16 17 19 19 17
15 15 15 15 16 15 15 15 16 16 15 15 15 15 15 15 15 14 15 14 14 14 14 15 16 16 15 17 18 18 18 16
15 14 14 15 15 15 15 15 16 15 15 14 14 14 14 15 15 15 14 14 14 14 16 17 16 16 17 17 17 19 18 16
15 14 14 14 14 14 15 15 15 15 16 14 14 14 14 15 15 16 15 15 15 16 17 17 17 17 17 17 17 18 17 16
14 14 13 13 14 14 14 15 15 14 14 14 14 14 14 15 16 16 16 16 16 17 17 17 17 17 16 17 17 17 17 16
14 14 13 13 14 13 14 14 14 14 13 13 13 14 14 15 15 16 16 16 16 17 17 17 17 17 17 17 17 17 17 17
14 13 13 13 13 13 13 13 13 13 13 12 13 13 15 14 14 15 16 16 16 16 16 17 17 18 17 17 17 17 16 16
14 12 12 13 13 12 12 12 11 11 11 11 12 12 13 13 13 14 14 15 15 15 16 17 17 18 17 17 17 17 16 16
13 12 12 13 12 12 12 12 12 11 11 11 12 11 12 13 14 14 14 15 15 15 16 17 17 18 18 18 17 17 17 17
13 12 12 12 12 12 11 11 11 11 12 12 12 12 13 14 15 15 15 14 15 16 16 16 16 17 18 18 17 17 17 17
13 12 12 12 12 12 12 11 11 11 11 12 13 13 14 15 15 15 15 16 16 15 16 16 17 16 18 18 18 17 16 16
14 13 13 13 12 12 11 11 11 11 11 13 14 14 15 15 16 15 16 15 15 15 16 16 17 16 16 18 18 18 18 17
15 13 13 13 12 12 12 12 12 12 12 13 13 14 14 15 15 15 15 15 15 15 16 17 17 17 16 16 17 17 18 17
15 13 13 13 12 12 12 12 13 13 13 14 14 13 14 15 15 15 16 16 16 16 16 16 17 17 18 17 16 17 16 17
15 14 13 12 12 12 12 12 12 13 13 13 13 13 14 14 15 16 16 16 16 16 16 16 16 16 16 17 18 18 18 17
15 14 13 12 12 12 12 12 12 13 13 13 13 13 13 14 15 16 16 16 16 16 15 15 15 15 16 16 16 17 17 17
15 15 14 13 12 13 13 12 13 13 13 13 13 14 14 15 15 15 16 16 16 16 16 15 15 15 15 15 16 16 16 16